COSMOS 2251 DEB

Satellite information

Favourite Embed

Satellite Type and Status

DEBRISIN ORBIT

Key statistics

Satellite COSMOS 2251 DEB at a glance.

Uptime

11650

Days in orbit

Revolutions

≈ 14.6

Per day

Orbit

LEO

Low Earth Orbit

Inclination

74.0

Latest

Satellite identification and parameters

Extended collection of information and parameters for COSMOS 2251 DEB.

Object identification

Identified? True

Debris? True

Object name: COSMOS 2251 DEB

International designator: 1993-036BUQ

Object number (NORAD): 39585

Object ID (CCSDS): 39585

Country: COMMONWEALTH OF INDEPENDENT STATES (CIS)

Current information (Y/N): Y

RCS size: SMALL

Orbital parameters

Period: 98.765 minutes

Inclination: 74.0439 deg

SMA: 7077.769 km

Apoapsis: 748.047 km

Periapsis: 651.222 km

RAAN: 5.1531 deg

Eccentricy: 0.0068401

Argument of periapsis: 184.1762 deg

Mean anomaly: 175.8841 deg

Mean motion: 14.58002097 rev/day

Mean motion (dot): 0.0000151 rev/day2

B* drag term: 0.0003248 1/REarth

Two-line elements (TLE)

Creation date: May 4, 2025, 7:06 a.m.

Reference frame: TEME

Reference center: EARTH

Epoch: May 3, 2025, 10:54 p.m. UTC

TLE line 0: 0 COSMOS 2251 DEB

TLE line 1: 1 39585U 93036BUQ 25123.95431505 .00001510 00000-0 32480-3 0 9993

TLE line 2: 2 39585 74.0439 5.1531 0068401 184.1762 175.8841 14.58002097812711

Live tracking on map

Real-time ground track for satellite COSMOS 2251 DEB.

In-orbit conjunctions

A list of the most updated potential collisions computed for object COSMOS 2251 DEB.

Target Orbit TCA Probability of collision Miss distance Type
COSMOS 2251 DEB LEO 2024-11-13 20:16:33 0.001175118 682.0 (m) DEBRIS

Associated space launch

Military communications satellite. Destroyed in a collision with Iridium 33.

COSMOS 2251 DEB was lifted into orbit during the mission ‘Kosmos-3M | Strela-2M 51’, on board a Kosmos-3M space rocket.

The launch took place on June 16, 1993, 4:17 a.m. from 132/1 (132L).

For more information about the launch, click the button.

Launch to space Kosmos-3M | Strela-2M 51
Kosmos-3M | Strela-2M 51

Agency: N/A

Status: Launch Successful

Launch date: June 16, 1993, 4:17 a.m. UTC

Rocket: Kosmos-3M

Launch pad: 132/1 (132L)

Location: Plesetsk Cosmodrome, Russian Federation

...

Latest news about this satellite

There are no fresh news available about this satellite. Check back as we update our databases every day.


Newsletter sign-up

Weekly statistics, charts and insights to help you stay on top of the space industry.